Weather History for Clines Corner, NM

Change the Weather History Date:

Wednesday, October 10, 2012

  Actual Average (KSAF) Record (KSAF)
Temperature  
Mean Temperature 53 °F -  
Max Temperature 72 °F 77 °F 81 °F (1999)
Min Temperature 35 °F 35 °F 32 °F (2001)
Degree Days  
Heating Degree Days 12    
Growing Degree Days 3 (Base 50)    
Moisture  
Dew Point 33 °F    
Average Humidity 63    
Maximum Humidity 96    
Minimum Humidity 18    
Precipitation  
Precipitation 0.00 in - - ()
Sea Level Pressure  
Sea Level Pressure 30.12 in    
Wind  
Wind Speed 10 mph (SE)    
Max Wind Speed 21 mph    
Max Gust Speed 28 mph    
Visibility 8 miles    
Events Fog    
Averages and records for this station are not official NWS values.
T = Trace of Precipitation, MM = Missing Value Source: NWS Daily Summary

Daily Weather History Graph

Daily Weather History Graph

Search for Another Location

Airport:

Trip Planner

Search our weather history database for the weather conditions in past years. The results will help you decide how hot, cold, wet, or windy it might be!

Date:

Astronomy

Oct. 10, 2012 Rise Set
Actual Time 7:04 AM MDT 6:33 PM MDT
Civil Twilight 6:39 AM MDT 6:58 PM MDT
Nautical Twilight 6:10 AM MDT 7:28 PM MDT
Astronomical Twilight 5:40 AM MDT 7:57 PM MDT
Moon 1:55 AM MDT (10/10) 3:27 PM MDT (10/10)
Length of Visible Light 12h 19m
Length of Day
11h 28m
Waning Crescent, 26% of the Moon is Illuminated
Oct 10
Waning Crescent
Oct 15
New
Oct 21
First Quarter
Oct 29
Full
Nov 6
Last Quarter

Hourly Weather History & Observations

Time (MDT) Temp. Windchill Dew Point Humidity Pressure Visibility Wind Dir Wind Speed Gust Speed Precip Events Conditions
12:53 AM 45.0 °F 38.2 °F 33.1 °F 63% 30.06 in 10.0 mi East 15.0 mph - N/A   Clear
1:53 AM 42.1 °F 34.9 °F 34.0 °F 73% 30.07 in 10.0 mi East 13.8 mph - N/A   Clear
2:53 AM 39.9 °F 32.1 °F 33.1 °F 77% 30.08 in 10.0 mi East 13.8 mph - N/A   Clear
3:53 AM 37.9 °F 31.5 °F 33.1 °F 83% 30.08 in 10.0 mi East 9.2 mph - N/A   Clear
4:53 AM 36.0 °F 29.0 °F 33.1 °F 89% 30.10 in 10.0 mi East 9.2 mph - N/A   Clear
5:50 AM 35.6 °F 29.2 °F 33.8 °F 93% 30.28 in 9.0 mi East 8.1 mph - N/A   Scattered Clouds
5:53 AM 36.0 °F 30.3 °F 33.1 °F 89% 30.11 in 9.0 mi East 6.9 mph - N/A   Mostly Cloudy
6:13 AM 35.6 °F 29.2 °F 33.8 °F 93% 30.28 in 1.8 mi East 8.1 mph - N/A   Overcast
6:27 AM 35.6 °F 30.7 °F 33.8 °F 93% 30.29 in 0.8 mi ENE 5.8 mph - N/A   Mist
6:37 AM 35.6 °F 31.7 °F 33.8 °F 93% 30.29 in 0.2 mi ENE 4.6 mph - N/A Fog Fog
6:53 AM 35.1 °F 31.0 °F 34.0 °F 96% 30.17 in 0.2 mi East 4.6 mph - N/A Fog Fog
7:53 AM 35.1 °F 31.0 °F 34.0 °F 96% 30.19 in 0.2 mi East 4.6 mph - N/A Fog Fog
8:38 AM 37.4 °F 32.8 °F 35.6 °F 93% 30.30 in 1.2 mi East 5.8 mph - N/A   Overcast
8:40 AM 37.4 °F 31.4 °F 35.6 °F 93% 30.30 in 3.0 mi East 8.1 mph - N/A   Overcast
8:53 AM 39.9 °F 33.9 °F 36.0 °F 86% 30.18 in 10.0 mi ESE 9.2 mph - N/A   Scattered Clouds
9:53 AM 46.9 °F - 36.0 °F 66% 30.15 in 10.0 mi ESE 8.1 mph - N/A   Clear
10:53 AM 52.0 °F - 36.0 °F 54% 30.15 in 10.0 mi SSE 3.5 mph - N/A   Clear
11:53 AM 57.9 °F - 36.0 °F 44% 30.12 in 10.0 mi Variable 5.8 mph - N/A   Clear
12:53 PM 62.1 °F - 36.0 °F 38% 30.09 in 10.0 mi Variable 6.9 mph - N/A   Clear
1:53 PM 66.9 °F - 34.0 °F 30% 30.04 in 10.0 mi Variable 5.8 mph - N/A   Clear
2:53 PM 70.0 °F - 30.0 °F 23% 30.01 in 10.0 mi SW 8.1 mph - N/A   Clear
3:53 PM 71.1 °F - 26.1 °F 19% 30.00 in 10.0 mi SW 12.7 mph 19.6 mph N/A   Clear
4:53 PM 71.1 °F - 25.0 °F 18% 30.00 in 10.0 mi WSW 20.7 mph 27.6 mph N/A   Clear
5:53 PM 68.0 °F - 26.1 °F 21% 30.01 in 10.0 mi WSW 10.4 mph - N/A   Clear
6:53 PM 57.9 °F - 30.0 °F 35% 30.06 in 10.0 mi South 10.4 mph - N/A   Clear
7:53 PM 54.0 °F - 34.0 °F 47% 30.09 in 10.0 mi South 8.1 mph - N/A   Clear
8:53 PM 51.1 °F - 33.1 °F 50% 30.09 in 10.0 mi South 10.4 mph - N/A   Clear
9:53 PM 50.0 °F - 33.1 °F 52% 30.07 in 10.0 mi SSW 6.9 mph - N/A   Clear
10:53 PM 55.0 °F - 28.9 °F 37% 30.03 in 10.0 mi SW 12.7 mph - N/A   Clear
11:53 PM 53.1 °F - 28.9 °F 40% 30.01 in 10.0 mi SW 12.7 mph - N/A   Clear